{"data":{"norad_id":48104,"epoch":"2026-05-25T00:26:22.937856Z","epoch_age_seconds":77425,"freshness":"FRESH","line1":"1 48104U 21027N   26145.01832104  .00001001  00000+0  44032-4 0  9994","line2":"2 48104  53.1588 157.7781 0001298  78.8889 281.2258 15.31701310284388","mean_motion":15.3170131,"eccentricity":0.0001298,"inclination_deg":53.1588,"raan_deg":157.7781,"arg_perigee_deg":78.8889,"mean_anomaly_deg":281.2258,"bstar":4.4032e-5,"rev_number":28438,"period_min":94.013107555546,"perigee_km":469.84710645949,"apogee_km":471.6250739137,"semimajor_km":6848.8730901866,"source":"CELESTRAK","updated_at":"2026-05-25T13:38:16.643175Z"}}